Hourly Data Report for October 17, 2013

All times are specified in Local Standard Time (LST). Add 1 hour to adjust for Daylight Saving Time where and when it is observed.

FREDERICTON
NEW BRUNSWICK

45°52'08.000" N
66°32'14.000" W
20.70 m
8101505
71700
YFC

Download Data

Hourly Data (October 2013)
Hourly Data Report for October 17, 2013
Temp Definition
°C
Dew Point Temp Definition
°C
Rel Hum Definition
%
Wind Dir Definition
10's deg

Wind Spd Definition
km/h
Visibility Definition
km
Stn Press Definition
kPa
Hmdx Definition


Wind Chill Definition


Weather Definition


TIME
00:00 Legend Double Dagger 12.7 12.4 98 2 8 4.8 100.96     LegendNANA
01:00 Legend Double Dagger 12.7 12.4 98 3 5 2.0 100.89     LegendNANA
02:00 Legend Double Dagger 12.8 12.5 98 35 4 1.6 100.84     LegendNANA
03:00 Legend Double Dagger 12.8 12.7 99 8 4 2.0 100.77     LegendNANA
04:00 Legend Double Dagger 12.8 12.7 99 4 4 1.2 100.68     LegendNANA
05:00 Legend Double Dagger 12.7 12.6 99   0 1.2 100.67     LegendNANA
06:00 Legend Double Dagger 12.6 12.5 99   0 1.2 100.65     LegendNANA
07:00 Legend Double Dagger 12.5 12.4 99 21 4 2.0 100.66     LegendNANA
08:00 Legend Double Dagger 13.0 12.9 99 23 8 16.1 100.64     LegendNANA
09:00 Legend Double Dagger 13.0 12.2 95 22 9 16.1 100.59     LegendNANA
10:00 Legend Double Dagger 13.6 12.3 92 22 15 16.1 100.58     LegendNANA
11:00 Legend Double Dagger 13.7 12.6 93 20 15 16.1 100.53     LegendNANA
12:00 Legend Double Dagger 14.1 12.5 90 22 17 16.1 100.54     LegendNANA
13:00 Legend Double Dagger 14.2 12.1 87 23 13 16.1 100.46     LegendNANA
14:00 Legend Double Dagger 14.6 12.3 86 25 9 16.1 100.44     LegendNANA
15:00 Legend Double Dagger 14.6 12.4 87 26 8 16.1 100.43     LegendNANA
16:00 Legend Double Dagger 15.1 12.3 83 21 11 16.1 100.42     LegendNANA
17:00 Legend Double Dagger 14.6 12.5 87 20 9 16.1 100.41     LegendNANA
18:00 Legend Double Dagger 11.9 11.4 97 19 5 16.1 100.41     LegendNANA
19:00 Legend Double Dagger 12.3 11.7 96 18 13 16.1 100.42     LegendNANA
20:00 Legend Double Dagger 11.6 11.3 98 21 5 11.3 100.45     LegendNANA
21:00 Legend Double Dagger 9.9 9.6 98 19 9 1.2 100.47     LegendNANA
22:00 Legend Double Dagger 11.0 10.9 99 19 9 11.3 100.47     LegendNANA
23:00 Legend Double Dagger 9.7 9.6 99 17 5 0.4 100.44     LegendNANA

Notes on Data Quality.

Legend

  • E = Estimated
  • M = Missing
  • NA = Not Available
  • ‡ = Partner data that is not subject to review by the National Climate Archives
Date modified: